• In Switzerland
  • List of Countries
  • For 7 days
  • Water Temperature
  • Satellite Maps
  • Weather Map
  • Weather Widgets
  • user-avatar
    Login

    Hourly Weather Hartford

    Today, 14 December, Thursday

    Time Temperature Precipitation Wind Pressure Humidity
    00:00 +1°C° 0 mm 6 mps 737 mmHg 80%
    01:00 +1°C° 0.2 mm 6 mps 737 mmHg 80%
    02:00 +1°C° 0.2 mm 6 mps 737 mmHg 81%
    03:00 +2°C° 0.2 mm 7 mps 737 mmHg 81%
    04:00 +2°C° 0.3 mm 7 mps 737 mmHg 80%
    05:00 +2°C° 0.3 mm 6 mps 737 mmHg 80%
    06:00 +1°C° 0 mm 5 mps 737 mmHg 83%
    07:00 +1°C° 0.1 mm 6 mps 737 mmHg 82%
    08:00 +1°C° 0.1 mm 6 mps 737 mmHg 81%
    09:00 +1°C° 0.1 mm 6 mps 737 mmHg 80%
    10:00 +2°C° 0 mm 6 mps 736 mmHg 78%
    11:00 +3°C° 0 mm 6 mps 736 mmHg 77%
    12:00 +3°C° 0 mm 5 mps 735 mmHg 79%
    13:00 +3°C° 0 mm 5 mps 735 mmHg 80%
    14:00 +3°C° 0 mm 5 mps 735 mmHg 80%
    15:00 +3°C° 0 mm 6 mps 735 mmHg 80%
    16:00 +2°C° 0.2 mm 5 mps 735 mmHg 82%
    17:00 +2°C° 0.2 mm 5 mps 735 mmHg 83%
    18:00 +2°C° 0.2 mm 5 mps 735 mmHg 85%
    19:00 +3°C° 0.1 mm 4 mps 736 mmHg 84%
    20:00 +3°C° 0.1 mm 4 mps 736 mmHg 83%
    21:00 +1°C° 0.1 mm 4 mps 736 mmHg 83%
    22:00 +3°C° 0.5 mm 4 mps 737 mmHg 84%
    23:00 +3°C° 0.5 mm 4 mps 737 mmHg 84%

    Tomorrow, 15 December, Friday

    Time Temperature Precipitation Wind Pressure Humidity
    00:00 +2°C° 0.5 mm 5 mps 737 mmHg 85%
    01:00 +2°C° 0.6 mm 5 mps 737 mmHg 85%
    02:00 +2°C° 0.6 mm 5 mps 738 mmHg 84%
    03:00 +2°C° 0.6 mm 5 mps 738 mmHg 84%
    04:00 +1°C° 0 mm 5 mps 740 mmHg 83%
    05:00 +1°C° 0 mm 5 mps 741 mmHg 83%
    06:00 0°C° 0 mm 5 mps 742 mmHg 82%
    07:00 +1°C° 0 mm 5 mps 743 mmHg 82%
    08:00 +1°C° 0 mm 5 mps 744 mmHg 81%
    09:00 +1°C° 0 mm 5 mps 745 mmHg 81%
    10:00 +1°C° 0 mm 6 mps 746 mmHg 80%
    11:00 +2°C° 0 mm 6 mps 747 mmHg 79%
    12:00 +3°C° 0 mm 6 mps 748 mmHg 78%
    13:00 +3°C° 0 mm 6 mps 749 mmHg 78%
    14:00 +3°C° 0 mm 6 mps 750 mmHg 78%
    15:00 +3°C° 0 mm 6 mps 751 mmHg 79%
    16:00 +2°C° 0 mm 5 mps 752 mmHg 79%
    17:00 +1°C° 0 mm 5 mps 753 mmHg 80%
    18:00 +1°C° 0 mm 4 mps 754 mmHg 81%
    19:00 0°C° 0 mm 4 mps 754 mmHg 81%
    20:00 0°C° 0 mm 4 mps 755 mmHg 81%
    21:00 0°C° 0 mm 4 mps 756 mmHg 81%
    22:00 +1°C° 0 mm 3 mps 756 mmHg 80%
    23:00 +1°C° 0 mm 3 mps 756 mmHg 80%

    Day after tomorrow, 16 December, Saturday

    Time Temperature Precipitation Wind Pressure Humidity
    00:00 0°C° 0 mm 3 mps 757 mmHg 79%
    01:00 0°C° 0 mm 3 mps 757 mmHg 79%
    02:00 0°C° 0 mm 3 mps 758 mmHg 78%
    03:00 -1°C° 0 mm 4 mps 758 mmHg 78%
    04:00 +1°C° 0.1 mm 3 mps 758 mmHg 79%
    05:00 +1°C° 0.1 mm 3 mps 758 mmHg 79%
    06:00 +1°C° 0.1 mm 3 mps 758 mmHg 80%
    07:00 +2°C° 0.4 mm 3 mps 759 mmHg 81%
    08:00 +2°C° 0.4 mm 3 mps 759 mmHg 81%
    09:00 +3°C° 0.4 mm 2 mps 759 mmHg 82%
    10:00 +3°C° 0.3 mm 2 mps 760 mmHg 80%
    11:00 +4°C° 0.3 mm 2 mps 760 mmHg 78%
    12:00 +4°C° 0.3 mm 2 mps 760 mmHg 76%
    13:00 +4°C° 0.1 mm 2 mps 760 mmHg 77%
    14:00 +4°C° 0.1 mm 2 mps 761 mmHg 78%
    15:00 +4°C° 0.1 mm 1 mps 761 mmHg 79%
    16:00 +4°C° 0 mm 1 mps 761 mmHg 80%
    17:00 +4°C° 0 mm 1 mps 762 mmHg 81%
    18:00 +4°C° 0 mm 1 mps 762 mmHg 82%
    19:00 +3°C° 0 mm 2 mps 763 mmHg 83%
    20:00 +3°C° 0 mm 2 mps 763 mmHg 85%
    21:00 +3°C° 0 mm 2 mps 764 mmHg 86%
    22:00 +3°C° 0 mm 2 mps 764 mmHg 88%
    23:00 +3°C° 0 mm 2 mps 764 mmHg 89%

    17 December, Sunday

    Time Temperature Precipitation Wind Pressure Humidity
    00:00 +3°C° 0 mm 2 mps 764 mmHg 91%
    01:00 +3°C° 0 mm 2 mps 764 mmHg 91%
    02:00 +3°C° 0 mm 2 mps 764 mmHg 92%
    03:00 +2°C° 0 mm 3 mps 764 mmHg 92%
    04:00 +2°C° 0 mm 3 mps 764 mmHg 92%
    05:00 +3°C° 0 mm 3 mps 764 mmHg 93%
    06:00 +3°C° 0 mm 3 mps 764 mmHg 93%
    07:00 +3°C° 0 mm 3 mps 764 mmHg 93%
    08:00 +3°C° 0 mm 4 mps 764 mmHg 93%
    09:00 +4°C° 0 mm 4 mps 764 mmHg 92%
    10:00 +5°C° 0 mm 4 mps 764 mmHg 91%
    11:00 +5°C° 0 mm 5 mps 763 mmHg 90%
    12:00 +6°C° 0 mm 5 mps 763 mmHg 88%
    13:00 +7°C° 0.1 mm 6 mps 763 mmHg 89%
    14:00 +7°C° 0.1 mm 6 mps 762 mmHg 89%
    15:00 +7°C° 0.1 mm 6 mps 762 mmHg 89%
    16:00 +6°C° 0.2 mm 7 mps 762 mmHg 89%
    17:00 +6°C° 0.2 mm 7 mps 762 mmHg 90%
    18:00 +8°C° 0.2 mm 7 mps 762 mmHg 90%
    19:00 +8°C° 0.1 mm 7 mps 763 mmHg 90%
    20:00 +8°C° 0.1 mm 7 mps 763 mmHg 89%
    21:00 +8°C° 0.1 mm 6 mps 763 mmHg 89%
    22:00 +8°C° 0.1 mm 6 mps 763 mmHg 90%
    23:00 +8°C° 0.1 mm 6 mps 764 mmHg 90%

    18 December, Monday

    Time Temperature Precipitation Wind Pressure Humidity
    00:00 +8°C° 0.1 mm 6 mps 764 mmHg 91%
    01:00 +8°C° 0.1 mm 5 mps 765 mmHg 91%
    02:00 +8°C° 0.1 mm 4 mps 765 mmHg 92%
    03:00 +8°C° 0.1 mm 4 mps 765 mmHg 93%
    04:00 +8°C° 0 mm 3 mps 765 mmHg 93%
    05:00 +8°C° 0 mm 3 mps 765 mmHg 94%
    06:00 +8°C° 0 mm 2 mps 766 mmHg 95%
    07:00 +8°C° 0 mm 2 mps 766 mmHg 95%
    08:00 +8°C° 0 mm 2 mps 766 mmHg 95%
    09:00 +8°C° 0 mm 2 mps 767 mmHg 96%
    10:00 +8°C° 0 mm 2 mps 767 mmHg 95%
    11:00 +10°C° 0 mm 1 mps 767 mmHg 94%
    12:00 +10°C° 0 mm 1 mps 767 mmHg 94%
    13:00 +9°C° 0 mm 2 mps 767 mmHg 94%
    14:00 +9°C° 0 mm 2 mps 767 mmHg 95%
    15:00 +9°C° 0 mm 2 mps 766 mmHg 95%
    16:00 +9°C° 0 mm 2 mps 767 mmHg 96%
    17:00 +9°C° 0 mm 2 mps 767 mmHg 96%
    18:00 +9°C° 0 mm 2 mps 767 mmHg 96%
    19:00 +9°C° 0 mm 2 mps 767 mmHg 96%
    20:00 +9°C° 0 mm 2 mps 768 mmHg 96%
    21:00 +9°C° 0 mm 2 mps 768 mmHg 96%
    22:00 +9°C° 0 mm 2 mps 768 mmHg 96%
    23:00 +9°C° 0 mm 2 mps 768 mmHg 96%

    19 December, Tuesday

    Time Temperature Precipitation Wind Pressure Humidity
    00:00 +9°C° 0 mm 2 mps 768 mmHg 96%
    01:00 +9°C° 0 mm 2 mps 768 mmHg 96%
    02:00 +9°C° 0 mm 2 mps 768 mmHg 96%
    03:00 +9°C° 0 mm 2 mps 768 mmHg 97%
    04:00 +9°C° 0 mm 2 mps 768 mmHg 97%
    05:00 +9°C° 0 mm 2 mps 768 mmHg 97%
    06:00 +9°C° 0 mm 2 mps 768 mmHg 97%
    07:00 +9°C° 0 mm 2 mps 768 mmHg 97%
    08:00 +10°C° 0 mm 2 mps 769 mmHg 96%
    09:00 +10°C° 0 mm 2 mps 769 mmHg 96%
    10:00 +10°C° 0 mm 3 mps 769 mmHg 95%
    11:00 +11°C° 0 mm 3 mps 769 mmHg 94%
    12:00 +12°C° 0 mm 3 mps 769 mmHg 93%
    13:00 +12°C° 0 mm 3 mps 769 mmHg 94%
    14:00 +12°C° 0 mm 3 mps 769 mmHg 94%
    15:00 +12°C° 0 mm 3 mps 769 mmHg 95%
    16:00 +11°C° 0 mm 3 mps 769 mmHg 95%
    17:00 +11°C° 0 mm 3 mps 769 mmHg 95%
    18:00 +11°C° 0 mm 3 mps 769 mmHg 95%
    19:00 +11°C° 0 mm 3 mps 770 mmHg 95%
    20:00 +11°C° 0 mm 3 mps 770 mmHg 95%
    21:00 +11°C° 0 mm 3 mps 770 mmHg 95%
    22:00 +11°C° 0.1 mm 3 mps 770 mmHg 95%
    23:00 +11°C° 0.1 mm 3 mps 770 mmHg 95%
    Show more